{"data":{"norad_id":62139,"intl_designator":"2024-224A","name":"STARLINK-32529","alt_names":[],"object_type":"PAYLOAD","status":"ACTIVE","operator":null,"country":"US","launch_date":"2024-11-30","launch_site_code":"AFETR","launch_vehicle":null,"mission":null,"orbit_class":"UNKNOWN","rcs_meters":null,"size_class":null,"mass_kg":null,"dimensions":null,"purposes":["comms"],"wikipedia_slug":null,"has_3d_model":false,"image_url":null,"decayed_at":null,"tle_current":{"epoch":"2026-05-24T21:43:04.503072Z","epoch_age_seconds":86534,"freshness":"FRESH","line1":"1 62139U 24224A   26144.90491323  .00027348  00000+0  99929-3 0  9997","line2":"2 62139  43.0046  87.9201 0001626 258.0782 101.9887 15.27591417 84079","mean_motion":15.27591417,"eccentricity":0.0001626,"inclination_deg":43.0046,"raan_deg":87.9201,"arg_perigee_deg":258.0782,"mean_anomaly_deg":101.9887,"bstar":0.00099929,"rev_number":8407,"period_min":94.26604417744,"perigee_km":481.89928634682,"apogee_km":484.13053294784,"semimajor_km":6861.1519096473,"source":"CELESTRAK","updated_at":"2026-05-25T13:38:19.568465Z"}}}